📊 Raw Sensor Data

Showing records 37301 to 37325 of 84,910 total

ID Distance (ft) Battery V Battery A Int Temp (°F) Int Humid (%) Ext Temp (°F) Solar V RSSI SNR Time Stamp
47622 15.3 3.88 -5 72 54 71 0.00 -70 7 07/28/2025 08:45 PM
47621 15.3 3.94 -5 74 55 72 0.80 -71 8 07/28/2025 08:30 PM
47620 15.4 3.86 -22 78 55 74 2.70 -69 7 07/28/2025 08:15 PM
47619 15.4 3.96 0 83 54 77 4.60 -70 8 07/28/2025 08:00 PM
47618 15.4 3.97 0 86 53 81 4.50 -69 8 07/28/2025 07:45 PM
47617 15.4 3.98 7 89 53 82 4.60 -70 8 07/28/2025 07:30 PM
47616 15.4 3.99 -7 91 53 83 4.60 -71 7 07/28/2025 07:15 PM
47615 15.5 3.96 16 93 52 86 4.50 -69 8 07/28/2025 07:00 PM
47614 15.5 3.94 6 95 51 87 5.10 -70 7 07/28/2025 06:45 PM
47613 15.5 3.94 0 96 51 88 5.10 -72 7 07/28/2025 06:30 PM
47612 15.5 3.94 0 99 50 89 5.10 -71 7 07/28/2025 06:15 PM
47611 15.5 3.94 5 99 50 89 5.10 -70 8 07/28/2025 06:00 PM
47610 15.5 4.02 6 100 49 90 5.10 -70 8 07/28/2025 05:45 PM
47609 15.5 3.94 0 101 49 92 5.10 -71 8 07/28/2025 05:30 PM
47608 15.5 3.94 0 102 48 92 5.10 -71 8 07/28/2025 05:15 PM
47607 15.5 4.12 6 103 47 93 5.10 -70 8 07/28/2025 05:00 PM
47606 15.5 3.94 0 104 46 94 5.10 -70 7 07/28/2025 04:45 PM
47605 15.4 3.94 0 104 46 94 5.10 -70 7 07/28/2025 04:30 PM
47604 15.5 3.94 6 103 45 93 5.10 -71 7 07/28/2025 04:15 PM
47603 15.5 3.97 5 103 45 91 5.10 -71 8 07/28/2025 04:00 PM
47602 15.5 3.94 5 103 44 92 5.10 -70 8 07/28/2025 03:45 PM
47601 15.4 3.93 5 103 44 94 5.10 -71 8 07/28/2025 03:30 PM
47600 15.5 3.93 0 102 43 94 5.10 -70 8 07/28/2025 03:15 PM
47599 15.4 3.93 5 101 43 94 5.10 -73 8 07/28/2025 03:00 PM
47598 15.4 3.93 5 100 42 92 5.10 -71 8 07/28/2025 02:45 PM